| time (UTC) | temp C | wind direction | speed KPH | gust KPH | rain 1hr cm | rain 24hr cm | rain mn cm | humidity % | barometer mb |
| 20260504215154 | 22 | 180 | 4.8 | 14.5 | 0.00 | 0.00 | 0.00 | 33 | 1007.6 |
| 20260504214649 | 22 | 161 | 3.2 | 9.7 | 0.00 | 0.00 | 0.00 | 33 | 1007.6 |
| 20260504214146 | 22 | 165 | 1.6 | 8.0 | 0.00 | 0.00 | 0.00 | 32 | 1007.7 |
| 20260504213642 | 22 | 196 | 3.2 | 8.0 | 0.00 | 0.00 | 0.00 | 32 | 1007.6 |
| 20260504213139 | 22 | 198 | 4.8 | 6.4 | 0.00 | 0.00 | 0.00 | 33 | 1007.7 |
| 20260504212636 | 22 | 205 | 8.0 | 12.9 | 0.00 | 0.00 | 0.00 | 32 | 1007.8 |
| 20260504212132 | 22 | 214 | 8.0 | 14.5 | 0.00 | 0.00 | 0.00 | 31 | 1007.7 |
| 20260504211630 | 22 | 197 | 4.8 | 9.7 | 0.00 | 0.00 | 0.00 | 31 | 1007.8 |
| 20260504211126 | 22 | 203 | 9.7 | 11.3 | 0.00 | 0.00 | 0.00 | 32 | 1007.9 |
| 20260504210624 | 22 | 185 | 3.2 | 6.4 | 0.00 | 0.00 | 0.00 | 33 | 1007.7 |
| 20260504210120 | 22 | 203 | 6.4 | 8.0 | 0.00 | 0.00 | 0.00 | 32 | 1007.9 |
| 20260504205618 | 22 | 183 | 3.2 | 8.0 | 0.00 | 0.00 | 0.00 | 32 | 1007.9 |
| 20260504205115 | 22 | 202 | 8.0 | 11.3 | 0.00 | 0.00 | 0.00 | 32 | 1007.9 |
| 20260504204614 | 22 | 172 | 3.2 | 9.7 | 0.00 | 0.00 | 0.00 | 32 | 1008.2 |
| 20260504204112 | 22 | 197 | 6.4 | 11.3 | 0.00 | 0.00 | 0.00 | 33 | 1008.3 |
| 20260504203610 | 21 | 222 | 8.0 | 8.0 | 0.00 | 0.00 | 0.00 | 33 | 1008.4 |
| 20260504203108 | 22 | 199 | 6.4 | 9.7 | 0.00 | 0.00 | 0.00 | 33 | 1008.6 |
| 20260504202602 | 23 | 190 | 3.2 | 9.7 | 0.00 | 0.00 | 0.00 | 31 | 1008.5 |
| 20260504202100 | 22 | 205 | 8.0 | 9.7 | 0.00 | 0.00 | 0.00 | 32 | 1008.5 |
| 20260504201556 | 22 | 201 | 6.4 | 9.7 | 0.00 | 0.00 | 0.00 | 32 | 1008.6 |
| 20260504201055 | 23 | 211 | 6.4 | 8.0 | 0.00 | 0.00 | 0.00 | 30 | 1008.6 |
| 20260504200550 | 23 | 205 | 8.0 | 9.7 | 0.00 | 0.00 | 0.00 | 31 | 1008.8 |
| 20260504200048 | 23 | 205 | 6.4 | 9.7 | 0.00 | 0.00 | 0.00 | 31 | 1008.8 |
| 20260504195543 | 23 | 185 | 4.8 | 8.0 | 0.00 | 0.00 | 0.00 | 32 | 1008.8 |
| 20260504195040 | 23 | 210 | 6.4 | 9.7 | 0.00 | 0.00 | 0.00 | 29 | 1008.9 |
| 20260504194537 | 23 | 171 | 3.2 | 14.5 | 0.00 | 0.00 | 0.00 | 29 | 1008.9 |
| 20260504194032 | 23 | 186 | 4.8 | 11.3 | 0.00 | 0.00 | 0.00 | 29 | 1008.7 |
| 20260504193529 | 24 | 205 | 3.2 | 9.7 | 0.00 | 0.00 | 0.00 | 29 | 1009.0 |
| 20260504193028 | 23 | 276 | 0.0 | 9.7 | 0.00 | 0.00 | 0.00 | 29 | 1009.1 |
| 20260504192526 | 23 | 234 | 9.7 | 11.3 | 0.00 | 0.00 | 0.00 | 30 | 1009.1 |
| 20260504192024 | 23 | 204 | 3.2 | 9.7 | 0.00 | 0.00 | 0.00 | 29 | 1009.1 |
| 20260504191521 | 23 | 157 | 6.4 | 8.0 | 0.00 | 0.00 | 0.00 | 32 | 1009.3 |
| 20260504191017 | 23 | 205 | 4.8 | 6.4 | 0.00 | 0.00 | 0.00 | 30 | 1009.2 |
| 20260504190513 | 23 | 169 | 3.2 | 16.1 | 0.00 | 0.00 | 0.00 | 30 | 1009.3 |
| 20260504190009 | 23 | 317 | 1.6 | 12.9 | 0.00 | 0.00 | 0.00 | 28 | 1009.6 |
| 20260504185507 | 22 | 199 | 6.4 | 11.3 | 0.00 | 0.00 | 0.00 | 31 | 1009.2 |
| 20260504185003 | 23 | 257 | 6.4 | 9.7 | 0.00 | 0.00 | 0.00 | 29 | 1009.4 |
| 20260504184458 | 22 | 212 | 9.7 | 14.5 | 0.00 | 0.00 | 0.00 | 31 | 1009.6 |
| 20260504183954 | 22 | 215 | 4.8 | 12.9 | 0.00 | 0.00 | 0.00 | 31 | 1009.3 |
| 20260504183452 | 22 | 248 | 1.6 | 8.0 | 0.00 | 0.00 | 0.00 | 30 | 1009.4 |
| 20260504182949 | 23 | 216 | 16.1 | 16.1 | 0.00 | 0.00 | 0.00 | 29 | 1009.5 |
| 20260504182446 | 22 | 340 | 3.2 | 9.7 | 0.00 | 0.00 | 0.00 | 29 | 1009.6 |
| 20260504181943 | 22 | 257 | 9.7 | 9.7 | 0.00 | 0.00 | 0.00 | 32 | 1009.7 |
| 20260504181440 | 22 | 11 | 3.2 | 9.7 | 0.00 | 0.00 | 0.00 | 30 | 1009.5 |
| 20260504180939 | 23 | 201 | 8.0 | 11.3 | 0.00 | 0.00 | 0.00 | 29 | 1009.5 |
| 20260504180437 | 22 | 197 | 4.8 | 6.4 | 0.00 | 0.00 | 0.00 | 31 | 1009.8 |
| 20260504175936 | 20 | 221 | 3.2 | 8.0 | 0.00 | 0.00 | 0.00 | 33 | 1009.8 |
| 20260504175432 | 22 | 158 | 9.7 | 9.7 | 0.00 | 0.00 | 0.00 | 32 | 1009.9 |
| 20260504174930 | 22 | 201 | 3.2 | 9.7 | 0.00 | 0.00 | 0.00 | 31 | 1010.1 |
| 20260504174427 | 22 | 153 | 8.0 | 11.3 | 0.00 | 0.00 | 0.00 | 30 | 1009.9 |
| 20260504173924 | 22 | 183 | 4.8 | 14.5 | 0.00 | 0.00 | 0.00 | 32 | 1009.9 |
| 20260504173420 | 22 | 165 | 8.0 | 9.7 | 0.00 | 0.00 | 0.00 | 30 | 1010.0 |
| 20260504172918 | 22 | 165 | 9.7 | 17.7 | 0.00 | 0.00 | 0.00 | 31 | 1009.9 |
| 20260504172414 | 22 | 202 | 9.7 | 9.7 | 0.00 | 0.00 | 0.00 | 31 | 1010.0 |
| 20260504171911 | 22 | 208 | 4.8 | 16.1 | 0.00 | 0.00 | 0.00 | 30 | 1010.2 |
| 20260504171408 | 22 | 203 | 8.0 | 11.3 | 0.00 | 0.00 | 0.00 | 30 | 1010.1 |
| 20260504170905 | 21 | 198 | 6.4 | 16.1 | 0.00 | 0.00 | 0.00 | 31 | 1010.0 |
| 20260504170401 | 21 | 186 | 4.8 | 12.9 | 0.00 | 0.00 | 0.00 | 32 | 1010.4 |
| 20260504160320 | 20 | 215 | 6.4 | 9.7 | 0.00 | 0.00 | 0.00 | 32 | 1011.1 |
| 20260504150745 | 17 | 194 | 3.2 | 4.8 | 0.00 | 0.00 | 0.00 | 35 | 1012.1 |
| 20260504150242 | 17 | 199 | 4.8 | 14.5 | 0.00 | 0.00 | 0.00 | 34 | 1012.0 |
| 20260504141211 | 16 | 193 | 6.4 | 9.7 | 0.00 | 0.00 | 0.00 | 35 | 1012.1 |
| 20260504140708 | 16 | 189 | 3.2 | 6.4 | 0.00 | 0.00 | 0.00 | 35 | 1012.4 |
| 20260504140203 | 16 | 160 | 3.2 | 9.7 | 0.00 | 0.00 | 0.00 | 35 | 1012.2 |
| 20260504130632 | 14 | 165 | 4.8 | 6.4 | 0.00 | 0.00 | 0.00 | 40 | 1012.7 |
| 20260504130128 | 13 | 183 | 4.8 | 6.4 | 0.00 | 0.00 | 0.00 | 38 | 1012.6 |
| 20260504110520 | 8 | 98 | 3.2 | 8.0 | 0.00 | 0.00 | 0.00 | 56 | 1013.2 |
| 20260504100442 | 6 | 66 | 0.0 | 0.0 | 0.00 | 0.00 | 0.00 | 60 | 1012.9 |
| 20260504081835 | 6 | 89 | 0.0 | 6.4 | 0.00 | 0.00 | 0.00 | 58 | 1013.1 |
| 20260504081331 | 6 | 107 | 3.2 | 4.8 | 0.00 | 0.00 | 0.00 | 58 | 1013.2 |
| 20260504080827 | 6 | 93 | 1.6 | 3.2 | 0.00 | 0.00 | 0.00 | 57 | 1013.4 |
| 20260504080325 | 7 | 162 | 1.6 | 6.4 | 0.00 | 0.00 | 0.00 | 57 | 1013.4 |
| 20260504070252 | 8 | 76 | 0.0 | 3.2 | 0.00 | 0.00 | 0.00 | 49 | 1012.9 |
| 20260504060213 | 9 | 83 | 3.2 | 4.8 | 0.00 | 0.00 | 0.00 | 47 | 1013.1 |
| 20260504050640 | 9 | 119 | 3.2 | 4.8 | 0.00 | 0.00 | 0.00 | 47 | 1013.1 |
| 20260504050137 | 9 | 76 | 1.6 | 6.4 | 0.00 | 0.00 | 0.00 | 46 | 1013.2 |
| 20260504045634 | 9 | 114 | 4.8 | 4.8 | 0.00 | 0.00 | 0.00 | 46 | 1012.9 |
| 20260504045134 | 9 | 127 | 3.2 | 3.2 | 0.00 | 0.00 | 0.00 | 45 | 1013.1 |
| 20260504044632 | 10 | 125 | 3.2 | 3.2 | 0.00 | 0.00 | 0.00 | 45 | 1013.1 |
| 20260504044129 | 9 | 95 | 3.2 | 4.8 | 0.00 | 0.00 | 0.00 | 45 | 1013.1 |
| 20260504043626 | 9 | 145 | 1.6 | 3.2 | 0.00 | 0.00 | 0.00 | 45 | 1013.0 |
| 20260504043123 | 9 | 118 | 3.2 | 3.2 | 0.00 | 0.00 | 0.00 | 46 | 1013.1 |
| 20260504042620 | 9 | 62 | 0.0 | 4.8 | 0.00 | 0.00 | 0.00 | 45 | 1012.9 |
| 20260504042117 | 10 | 118 | 1.6 | 3.2 | 0.00 | 0.00 | 0.00 | 46 | 1012.8 |
| 20260504041613 | 9 | 101 | 1.6 | 3.2 | 0.00 | 0.00 | 0.00 | 45 | 1012.8 |
| 20260504041109 | 9 | 93 | 1.6 | 3.2 | 0.00 | 0.00 | 0.00 | 45 | 1012.8 |
| 20260504040607 | 9 | 77 | 1.6 | 3.2 | 0.00 | 0.00 | 0.00 | 45 | 1013.0 |
| 20260504040103 | 9 | 44 | 0.0 | 1.6 | 0.00 | 0.00 | 0.00 | 45 | 1013.0 |
| 20260504035600 | 9 | 103 | 1.6 | 3.2 | 0.00 | 0.00 | 0.00 | 44 | 1012.7 |
| 20260504035056 | 9 | 112 | 1.6 | 6.4 | 0.00 | 0.00 | 0.00 | 45 | 1012.9 |
| 20260504034554 | 9 | 61 | 1.6 | 4.8 | 0.00 | 0.00 | 0.00 | 44 | 1012.9 |
| 20260504034051 | 9 | 5 | 1.6 | 3.2 | 0.00 | 0.00 | 0.00 | 46 | 1012.8 |
| 20260504033549 | 9 | 109 | 1.6 | 3.2 | 0.00 | 0.00 | 0.00 | 44 | 1012.9 |
| 20260504033046 | 9 | 126 | 1.6 | 3.2 | 0.00 | 0.00 | 0.00 | 44 | 1012.8 |
| 20260504032543 | 9 | 113 | 0.0 | 1.6 | 0.00 | 0.00 | 0.00 | 44 | 1012.7 |
| 20260504032040 | 9 | 97 | 1.6 | 3.2 | 0.00 | 0.00 | 0.00 | 44 | 1012.8 |
| 20260504031537 | 9 | 89 | 3.2 | 3.2 | 0.00 | 0.00 | 0.00 | 44 | 1013.0 |
| 20260504031033 | 9 | 133 | 1.6 | 3.2 | 0.00 | 0.00 | 0.00 | 44 | 1012.8 |
| 20260504030530 | 9 | 66 | 0.0 | 3.2 | 0.00 | 0.00 | 0.00 | 44 | 1012.8 |
| 20260504030026 | 9 | 114 | 4.8 | 6.4 | 0.00 | 0.00 | 0.00 | 44 | 1012.8 |
| 20260504025524 | 9 | 107 | 3.2 | 3.2 | 0.00 | 0.00 | 0.00 | 44 | 1012.9 |
| 20260504025020 | 10 | 99 | 3.2 | 3.2 | 0.00 | 0.00 | 0.00 | 44 | 1012.8 |
| 20260504024517 | 10 | 108 | 3.2 | 4.8 | 0.00 | 0.00 | 0.00 | 43 | 1012.9 |
| 20260504024014 | 10 | 98 | 4.8 | 6.4 | 0.00 | 0.00 | 0.00 | 43 | 1013.0 |
| 20260504023511 | 10 | 46 | 3.2 | 3.2 | 0.00 | 0.00 | 0.00 | 43 | 1012.9 |
| 20260504023007 | 10 | 115 | 1.6 | 3.2 | 0.00 | 0.00 | 0.00 | 43 | 1012.7 |
| 20260504022503 | 10 | 88 | 3.2 | 3.2 | 0.00 | 0.00 | 0.00 | 44 | 1012.9 |
| 20260504021959 | 10 | 89 | 3.2 | 3.2 | 0.00 | 0.00 | 0.00 | 43 | 1012.8 |
| 20260504021457 | 10 | 99 | 3.2 | 4.8 | 0.00 | 0.00 | 0.00 | 43 | 1013.0 |
| 20260504020954 | 10 | 110 | 0.0 | 1.6 | 0.00 | 0.00 | 0.00 | 43 | 1013.0 |
| 20260504020450 | 10 | 67 | 1.6 | 3.2 | 0.00 | 0.00 | 0.00 | 43 | 1012.9 |
| 20260504015947 | 10 | 111 | 1.6 | 3.2 | 0.00 | 0.00 | 0.00 | 43 | 1012.9 |
| 20260504015443 | 10 | 118 | 3.2 | 3.2 | 0.00 | 0.00 | 0.00 | 43 | 1012.9 |
| 20260504014939 | 10 | 93 | 3.2 | 3.2 | 0.00 | 0.00 | 0.00 | 43 | 1012.8 |
| 20260504014435 | 10 | 102 | 0.0 | 3.2 | 0.00 | 0.00 | 0.00 | 43 | 1012.9 |
| 20260504013932 | 10 | 93 | 0.0 | 1.6 | 0.00 | 0.00 | 0.00 | 43 | 1013.0 |
| 20260504013431 | 10 | 97 | 0.0 | 3.2 | 0.00 | 0.00 | 0.00 | 43 | 1012.7 |
| 20260504012927 | 10 | 136 | 4.8 | 4.8 | 0.00 | 0.00 | 0.00 | 42 | 1012.6 |
| 20260504012425 | 10 | 135 | 3.2 | 3.2 | 0.00 | 0.00 | 0.00 | 41 | 1012.4 |
| 20260504011922 | 10 | 105 | 0.0 | 1.6 | 0.00 | 0.00 | 0.00 | 41 | 1012.6 |
| 20260504011419 | 10 | 114 | 0.0 | 3.2 | 0.00 | 0.00 | 0.00 | 41 | 1012.7 |
| 20260504010914 | 10 | 110 | 1.6 | 1.6 | 0.00 | 0.00 | 0.00 | 40 | 1012.5 |
| 20260504010411 | 10 | 52 | 1.6 | 1.6 | 0.00 | 0.00 | 0.00 | 40 | 1012.5 |
| 20260504005907 | 10 | 139 | 1.6 | 3.2 | 0.00 | 0.00 | 0.00 | 40 | 1012.4 |
| 20260504005404 | 10 | 61 | 1.6 | 1.6 | 0.00 | 0.00 | 0.00 | 40 | 1012.4 |
| 20260504004901 | 10 | 94 | 0.0 | 1.6 | 0.00 | 0.00 | 0.00 | 40 | 1012.4 |
| 20260504004359 | 11 | 121 | 1.6 | 3.2 | 0.00 | 0.00 | 0.00 | 40 | 1012.3 |
| 20260504003855 | 11 | 44 | 0.0 | 3.2 | 0.00 | 0.00 | 0.00 | 39 | 1012.2 |
| 20260504003352 | 11 | 144 | 0.0 | 3.2 | 0.00 | 0.00 | 0.00 | 39 | 1012.2 |
| 20260504002849 | 11 | 103 | 0.0 | 0.0 | 0.00 | 0.00 | 0.00 | 38 | 1012.2 |
| 20260504002346 | 11 | 77 | 0.0 | 1.6 | 0.00 | 0.00 | 0.00 | 38 | 1012.2 |
| 20260504001843 | 11 | 66 | 0.0 | 1.6 | 0.00 | 0.00 | 0.00 | 39 | 1012.0 |
| 20260504001340 | 11 | 87 | 0.0 | 1.6 | 0.00 | 0.00 | 0.00 | 39 | 1012.0 |
| 20260504000837 | 11 | 55 | 0.0 | 1.6 | 0.00 | 0.00 | 0.00 | 39 | 1011.7 |
| 20260504000334 | 11 | 141 | 0.0 | 1.6 | 0.00 | 0.00 | 0.00 | 38 | 1012.0 |
| 20260503235832 | 12 | 143 | 1.6 | 3.2 | 0.00 | 0.00 | 0.00 | 37 | 1011.8 |
| 20260503235329 | 12 | 89 | 0.0 | 1.6 | 0.00 | 0.00 | 0.00 | 38 | 1011.8 |
| 20260503234826 | 12 | 140 | 1.6 | 1.6 | 0.00 | 0.00 | 0.00 | 39 | 1012.0 |
| 20260503234324 | 12 | 157 | 0.0 | 1.6 | 0.00 | 0.00 | 0.00 | 38 | 1011.7 |
| 20260503233822 | 12 | 113 | 0.0 | 1.6 | 0.00 | 0.00 | 0.00 | 37 | 1011.6 |
| 20260503233317 | 12 | 203 | 3.2 | 3.2 | 0.00 | 0.00 | 0.00 | 36 | 1012.0 |
| 20260503232814 | 12 | 129 | 1.6 | 3.2 | 0.00 | 0.00 | 0.00 | 36 | 1011.8 |
| 20260503232312 | 12 | 89 | 0.0 | 1.6 | 0.00 | 0.00 | 0.00 | 38 | 1011.7 |
| 20260503231810 | 13 | 99 | 0.0 | 3.2 | 0.00 | 0.00 | 0.00 | 37 | 1011.7 |
| 20260503231306 | 13 | 269 | 0.0 | 3.2 | 0.00 | 0.00 | 0.00 | 38 | 1011.8 |
| 20260503230802 | 13 | 38 | 0.0 | 4.8 | 0.00 | 0.00 | 0.00 | 36 | 1011.8 |
| 20260503230259 | 13 | 262 | 3.2 | 3.2 | 0.00 | 0.00 | 0.00 | 38 | 1011.5 |
| 20260503225757 | 13 | 130 | 0.0 | 1.6 | 0.00 | 0.00 | 0.00 | 37 | 1011.7 |
| 20260503225252 | 13 | 114 | 0.0 | 3.2 | 0.00 | 0.00 | 0.00 | 36 | 1011.8 |
| 20260503224749 | 13 | 129 | 0.0 | 1.6 | 0.00 | 0.00 | 0.00 | 35 | 1011.7 |
| 20260503224247 | 13 | 3 | 3.2 | 8.0 | 0.00 | 0.00 | 0.00 | 34 | 1011.5 |
| 20260503223744 | 13 | 282 | 3.2 | 6.4 | 0.00 | 0.00 | 0.00 | 35 | 1011.8 |
| 20260503223242 | 13 | 34 | 1.6 | 3.2 | 0.00 | 0.00 | 0.00 | 35 | 1011.8 |
| 20260503222737 | 13 | 184 | 0.0 | 4.8 | 0.00 | 0.00 | 0.00 | 35 | 1011.7 |
| 20260503222236 | 13 | 352 | 3.2 | 6.4 | 0.00 | 0.00 | 0.00 | 34 | 1011.6 |
| 20260503221734 | 13 | 190 | 3.2 | 6.4 | 0.00 | 0.00 | 0.00 | 36 | 1011.5 |
| 20260503221231 | 13 | 334 | 3.2 | 11.3 | 0.00 | 0.00 | 0.00 | 35 | 1011.7 |
| 20260503220727 | 13 | 346 | 6.4 | 8.0 | 0.00 | 0.00 | 0.00 | 34 | 1011.8 |
| 20260503220225 | 13 | 291 | 0.0 | 6.4 | 0.00 | 0.00 | 0.00 | 34 | 1011.6 |
| 20260503215721 | 13 | 352 | 4.8 | 6.4 | 0.00 | 0.00 | 0.00 | 33 | 1011.8 |